This demonstration page uses our WeatherBlox Daily Observations layout. Learn more.

40.92945, -100.16068

Hourly Observations for December 17, 2018

Temp ( °F °C ) Dew Point ( °F °C ) Humidity (%) Winds ( mph kmh ) Pressure ( in mb ) Visibility ( mi km ) Precip ( " mm )
12:15 am 00:15 Clear 27 -3 24 -4.6 89 89 Calm 30.36 1028 10 16.09344 0 0
12:35 am 00:35 Clear 27 -3 24 -4.6 89 89 Calm 30.36 1028 10 16.09344 0 0
12:55 am 00:55 Clear 27 -2.6 24 -4.2 89 89 Calm 30.36 1028 10 16.09344 0 0
1:15 am 01:15 Clear 26 -3.1 24 -4.7 89 89 Calm 30.36 1028 10 16.09344 0 0
1:35 am 01:35 Clear 28 -2.5 24 -4.3 88 88 Calm 30.36 1028 10 16.09344 0 0
1:55 am 01:55 Clear 30 -1.2 26 -3.6 84 84 Calm 30.33 1027 10 16.09344 0 0
2:15 am 02:15 Clear 33 0.5 25 -3.9 73 73 Calm 30.3 1026 10 16.09344 0 0
2:35 am 02:35 Clear 33 0.5 26 -3.4 75 75 Calm 30.3 1026 10 16.09344 0 0
2:55 am 02:55 Clear 28 -2.1 24 -4.6 83 83 Calm 30.33 1027 10 16.09344 0 0
3:15 am 03:15 Clear 28 -2.5 24 -4.7 85 85 Calm 30.33 1027 10 16.09344 0 0
3:35 am 03:35 Clear 27 -2.6 24 -4.6 86 86 Calm 30.33 1027 10 16.09344 0 0
3:55 am 03:55 Clear 28 -2.5 24 -4.5 86 86 Calm 30.33 1027 10 16.09344 0 0
4:15 am 04:15 Clear 27 -3 23 -4.9 87 87 Calm 30.33 1027 10 16.09344 0 0
4:35 am 04:35 Clear 27 -2.7 24 -4.6 87 87 Calm 30.3 1026 10 16.09344 0 0
4:55 am 04:55 Clear 26 -3.2 23 -5.2 86 86 Calm 30.3 1026 10 16.09344 0 0
5:15 am 05:15 Clear 26 -3.2 23 -5 88 88 Calm 30.3 1026 10 16.09344 0 0
5:35 am 05:35 Clear 26 -3.2 23 -4.9 88 88 Calm 30.3 1026 10 16.09344 0 0
5:55 am 05:55 Clear 25 -3.7 22 -5.3 89 89 Calm 30.3 1026 10 16.09344 0 0
6:15 am 06:15 Clear 26 -3.6 23 -5.1 89 89 Calm 30.3 1026 10 16.09344 0 0
6:35 am 06:35 Clear 25 -3.8 22 -5.4 89 89 Calm 30.33 1027 10 16.09344 0 0
6:55 am 06:55 Clear 26 -3.5 23 -5.1 89 89 SSE 3 6 30.3 1026 10 16.09344 0 0
7:15 am 07:15 Clear 27 -2.7 24 -4.7 86 86 SE 5 7 30.3 1026 10 16.09344 0 0
7:35 am 07:35 Clear 28 -2.2 24 -4.3 86 86 SE 6 9 30.3 1026 10 16.09344 0 0
7:55 am 07:55 Clear 28 -2.4 24 -4.5 86 86 SE 6 9 30.3 1026 10 16.09344 0 0
8:15 am 08:15 Sunny 28 -2.1 24 -4.4 84 84 SE 5 7 30.3 1026 10 16.09344 0 0
8:35 am 08:35 Sunny 30 -1.3 25 -3.7 84 84 SE 6 9 30.3 1026 10 16.09344 0 0
8:55 am 08:55 Sunny 31 -0.7 26 -3.3 83 83 SE 5 7 30.27 1025 10 16.09344 0 0
9:15 am 09:15 Sunny 32 0.1 27 -2.8 81 81 SSE 5 7 30.27 1025 10 16.09344 0 0
9:35 am 09:35 Sunny 34 1 28 -2 81 81 S 7 11 30.27 1025 10 16.09344 0 0
9:55 am 09:55 Sunny 38 3.2 30 -1.1 74 74 S 8 13 30.24 1024 10 16.09344 0 0
10:15 am 10:15 Sunny 40 4.7 31 -0.7 68 68 S 9 15 30.24 1024 10 16.09344 0 0
10:35 am 10:35 Sunny 42 5.7 30 -1 62 62 S 9 15 30.21 1023 10 16.09344 0 0
10:55 am 10:55 Sunny 44 6.5 30 -1.1 59 59 S 8 13 30.18 1022 10 16.09344 0 0
11:15 am 11:15 Sunny 46 7.6 30 -1.3 54 54 SSW 9 15 30.18 1022 10 16.09344 0 0
11:35 am 11:35 Sunny 46 7.7 29 -1.9 51 51 SSW 7 11 30.18 1022 10 16.09344 0 0
11:55 am 11:55 Sunny 47 8.5 29 -1.6 49 49 SSW 14 22 30.12 1020 10 16.09344 0 0
12:15 pm 12:15 Sunny 47 8.6 30 -1.1 51 51 SSW 17 28 30.12 1020 10 16.09344 0 0
12:35 pm 12:35 Sunny 49 9.4 31 -0.5 50 50 SSW 14 22 30.12 1020 10 16.09344 0 0
12:55 pm 12:55 Sunny 50 10 32 0 50 50 S 15 24 30.09 1019 10 16.09344 0 0
1:15 pm 13:15 Sunny 50 10 32 0 50 50 SSW 14 22 30.09 1019 10 16.09344 0 0
1:35 pm 13:35 Sunny 51 10.6 33 0.8 51 51 S 13 20 30.03 1017 10 16.09344 0 0
1:55 pm 13:55 Sunny 53 11.8 35 1.5 50 50 S 10 17 30.03 1017 10 16.09344 0 0
2:15 pm 14:15 Sunny 55 13 33 0.7 43 43 S 14 22 30.03 1017 10 16.09344 0 0
2:35 pm 14:35 Sunny 56 13.2 33 0.4 42 42 S 16 26 30.03 1017 10 16.09344 0 0
2:55 pm 14:55 Sunny 56 13.1 32 0.1 41 41 S 13 20 30.03 1017 10 16.09344 0 0
3:15 pm 15:15 Sunny 56 13.1 32 -0.1 41 41 S 14 22 30.03 1017 10 16.09344 0 0
3:35 pm 15:35 Sunny 55 12.7 32 -0.2 41 41 S 13 20 30.03 1017 10 16.09344 0 0
3:55 pm 15:55 Sunny 54 12.3 32 0.1 43 43 S 9 15 30.03 1017 10 16.09344 0 0
4:15 pm 16:15 Sunny 52 11.3 32 0 46 46 S 14 22 30.03 1017 10 16.09344 0 0
4:35 pm 16:35 Sunny 51 10.5 31 -0.7 46 46 S 12 19 30.03 1017 10 16.09344 0 0
4:55 pm 16:55 Sunny 47 8.6 30 -1.1 51 51 SSE 8 13 30.06 1018 10 16.09344 0 0
5:15 pm 17:15 Clear 46 7.6 30 -1.2 54 54 SE 7 11 30.06 1018 10 16.09344 0 0
5:35 pm 17:35 Clear 46 7.8 30 -1.3 53 53 ESE 6 9 30.03 1017 10 16.09344 0 0
5:55 pm 17:55 Clear 44 6.5 30 -1.1 59 59 SE 8 13 30.06 1018 10 16.09344 0 0
6:15 pm 18:15 Clear 44 6.4 30 -1 59 59 SSE 7 11 30.09 1019 10 16.09344 0 0
6:35 pm 18:35 Clear 45 7.1 30 -1.3 56 56 SSE 12 19 30.03 1017 10 16.09344 0 0
6:55 pm 18:55 Clear 44 6.5 29 -1.5 57 57 S 9 15 30.06 1018 10 16.09344 0 0
7:15 pm 19:15 Clear 45 7 29 -1.5 55 55 SSE 10 17 30.03 1017 10 16.09344 0 0
7:35 pm 19:35 Clear 44 6.9 29 -1.5 55 55 SSE 12 19 30.03 1017 10 16.09344 0 0
7:55 pm 19:55 Clear 45 7.1 29 -1.8 54 54 SSE 13 20 30.03 1017 10 16.09344 0 0
8:15 pm 20:15 Clear 45 7.1 28 -2 53 53 SSE 12 19 30.03 1017 10 16.09344 0 0
8:35 pm 20:35 Clear 45 7.1 28 -2.5 51 51 SSE 13 20 30.03 1017 10 16.09344 0 0
8:55 pm 20:55 Clear 44 6.5 28 -2.5 53 53 SSE 13 20 30.06 1018 10 16.09344 0 0
9:15 pm 21:15 Clear 44 6.5 27 -2.7 52 52 S 8 13 30.06 1018 10 16.09344 0 0
9:35 pm 21:35 Clear 43 5.9 27 -2.7 54 54 S 7 11 30.06 1018 10 16.09344 0 0
9:55 pm 21:55 Clear 42 5.3 27 -2.7 57 57 SSE 6 9 30.06 1018 10 16.09344 0 0
10:15 pm 22:15 Clear 41 4.9 27 -2.6 59 59 E 3 6 30.06 1018 10 16.09344 0 0
10:35 pm 22:35 Clear 41 4.8 27 -2.7 59 59 E 7 11 30.06 1018 10 16.09344 0 0
10:55 pm 22:55 Clear 40 4.6 27 -2.6 60 60 E 6 9 30.06 1018 10 16.09344 0 0
11:15 pm 23:15 Clear 40 4.4 27 -2.6 61 61 ESE 6 9 30.06 1018 10 16.09344 0 0
11:35 pm 23:35 Clear 40 4.5 27 -2.8 59 59 SE 3 6 30.06 1018 10 16.09344 0 0
11:55 pm 23:55 Clear 39 4.1 27 -2.8 61 61 E 5 7 30.03 1017 10 16.09344 0 0

Powered by AerisWeather